Погода в Токме

Хотите узнать прогноз погоды в Токме? Тогда Вам сюда: Погода в Токме

Поиск расширенной информации на нашем сайте:

Полезная информация:

Новости сайта



02.01.2020
Опубликован Долгосрочный прогноз погоды по городам России и ближнего зарубежья на январь 2020 года.
Карты: Прогноз на январь и февраль 2020 года, Сравнение прогнозируемой аномалии приземной температуры воздуха на январь 2020 года по разным моделям.




Погода в Токме - сегодня

Время (UTC), дата Ветер
(°,м/с) 
Видим.   Явления Облачность Т
(°С)
Тd
(°С)
f(%) Тe
(°С)
Pmin
(гПа)
dP
(гПа)
Po
(мм)
O2
(г/м3)
Тmin Tmax R s Состояние
почвы
18 20.11.20 230 (ЮЗ) н/о  слаб. снег  10/0 средняя 
[As op]
-12 -14.7 80 -12  1030.1  -0.2  730  309           
00 21.11.20 230 (ЮЗ) н/о  {снег}  10/6 600 м кучево-дожд. 
[Cb cap]
-11.1 -13.9 80 -13  1028.4  -0.7  729  307  -12.4    0.2  19  равномерный
сухой снег
100% 
06 21.11.20 230 (ЮЗ) 20000 м  в посл. час снег  10/10 600 м 
[Sc]
-7.9 -11.5 75 -11  1023.5  -2.4  726  302           
12 21.11.20 230 (ЮЗ) н/о  слаб. ливневой снег  10/10 600 м кучево-дожд. 
[Cb cap]
-6.7 -7.9 91 -11  1018.7  -1.4  723  299    -6.5     
18 21.11.20 230 (ЮЗ) н/о  {ливн. осадки}  10/10 600 м кучево-дожд. 
[Cb cap]
-6.4 -8.8 83 -9  1018.6  0.3  723  299           
00 22.11.20 270 (З) н/о  позёмок  10/10 600 м кучево-дожд. 
[Cb cap]
-6.2 -8.5 84 -10  1016.8  -1.2  721  298  -7.2    0.3  19  равномерный
сухой снег
100% 
06 22.11.20 230 (ЮЗ) 10 км  слаб. ливневой снег  9/9 600 м кучево-дожд. 
[Cb cap]
-4.7 -7.1 83 -8  1018.5  0.7  723  297           
12 22.11.20 230 (ЮЗ) н/о  слаб. ливневой снег  10/10 600 м кучево-дожд. 
[Cb cap]
-5 -7.1 85 -6  1021.6  725  298    -4.5  0.4     
18 22.11.20 230 (ЮЗ) н/о  {ливн. осадки}  10/10 600 м 
[Sc]
-5.5 -7.3 87 -5  1021.9  0.7  725  299           
00 23.11.20 230 (ЮЗ) н/о  слаб. ливневой снег  10/10 600 м кучево-дожд. 
[Cb cap]
-5.9 -6.7 94 -7  1021.5  -0.2  725  299  -6.2    0.0  20  равномерный
сухой снег
100% 
06 23.11.20 250 (З) 4000 м  слаб. ливневой снег  10/10 600 м кучево-дожд. 
[Cb cap]
-5.6 -7.8 84 -9  1021.7  0.8  725  299           
12 23.11.20 230 (ЮЗ) н/о  слаб. ливневой снег  10/10 600 м кучево-дожд. 
[Cb cap]
-5.3 -8.2 80 -8  1025.2  2.1  728  300    -5.1  0.9     
18 23.11.20 290 (З) н/о  {ливн. осадки}  9/9 600 м 
[Sc]
-6.2 -9.3 79 -8  1029.7  2.2  723  299           
00 24.11.20 290 (З) н/о    10/10 600 м 
[Sc]
-8 -10.7 81 -10  1032.9  0.5  733  305  -9.7    0.0  21  равномерный
сухой снег
100% 
06 24.11.20 270 (З) 20000 м    3/3 600 м 
[Cu hum]
-8.5 -13.8 65 -8  1037.1  1.4  735  307           
12 24.11.20 тихо ()   н/о    ясно 
-21.6 -23.4 85 -22  1042.3  1.2  737  324    -8       
18 24.11.20 тихо ()   н/о    8/0 верхняя 
[Cs]
-23.9 -23.9 100 -24  1043.5  -0.1  738  327           
00 25.11.20 230 (ЮЗ) н/о    10/0 средняя 
[Ac As]
-12.6 -14.6 85 -13  1040.1  -0.5  737  313  -25.9      21  равномерный
сухой снег
100% 
06 25.11.20 230 (ЮЗ) 20000 м  {снег}  10/5 600 м средняя 
[Sc|As trans]
-9.1 -12 79 -11  1040.9  0.4  738  309           
12 25.11.20 270 (З) н/о  {снег}  9/9 600 м 
[Sc]
-10.7 -12.7 85 -11  1042.6  0.7  739  311    -8.9  0.1     
18 25.11.20 270 (З) н/о    10/0 средняя 
[As op]
-11.1 -13.1 85 -11  1043.4  0.4  739  312           
00 26.11.20 270 (З) н/о    10/0 средняя 
[As op]
-12.8 -14.8 85 -13  1043.7  740  314  -12.3      21  равномерный
сухой снег
100% 
06 26.11.20 230 (ЮЗ) 20000 м  {снег}  6/0 средняя 
[Ac lent]
-10.1 -13.7 75 -10  1043.8  -0.5  740  311           
12 26.11.20 тихо ()   н/о    ясно 
-20.7 -23.2 80 -21  1047  0.5  740  324    -9.9  0.1     
18 26.11.20 тихо ()   н/о    10/0 средняя 
[As op]
-18.7 -20.6 85 -19  1045.9  -0.2  740  322           
Время (UTC), дата Ветер
(°,м/с) 
Видим.   Явления Облачность Т
(°С)
Тd
(°С)
f(%) Тe
(°С)
Pmin
(гПа)
dP
(гПа)
Po
(мм)
O2
(г/м3)
Тmin Tmax R s Состояние
почвы

Для получения пояснительной информации подведите курсор к названию столбца.

ПОГОДА в Токме - архив

Всё, что Вы хотите узнать о погоде в Токме - удобно и подробно!

Выберите нужную дату (начиная с 1 января 2019* года) и нажмите кнопку "Найти".
Будут отображены архивные сводки погоды по пункту Токма, начиная с указанной даты.


Отображать данные в формате CSV (для использования в таблицах Excel)


Внимание! Наш архив погоды предназначен исключительно для личного некоммерческого использования в познавательных целях. Если Вам необходимы официальные справки о состоянии погоды (для производственных, юридических, коммерческих и т.п. целей), обращайтесь в органы Росгидромета.

*Примечание: данная дата относится к архиву по метеостанциям СССР (Россия, СНГ, Балтия).
Архив по метеостанциям Зарубежной Европы и Азии (кроме Китая) хранится 10 дней, по другим регионам земного шара (Китай, Африка, Америка, Австралия, Океания) - 1 день.

Токма - район местоположения метеостанции


Название, широта, долгота, высота метеостанции:
Токма 58.3°ш. 105.9°д. 435 м над ур. моря [Российская Федерация]

Дополнительная информация

В oтличие oт бoльшинства пoгoдных сайтoв мы публикуем пoдрoбную метеoинфoрмацию в детальнoм прoфессиoнальнoм фoрмате.

Характеристики температуры и влажнoсти вoздуха измеряются на высoте 2 м в тени вдали oт зданий и деревьев.
Скoрoсть ветра измеряется на высoте 10 м (на урoвне рoста челoвека скoрoсть ветра ниже в 1.5-2 раза). Если метеoстанция нахoдится в гoрoде или в лесу, тo скoрoсть ветра занижена на 2-4 м/с пo сравнению с oткрытым местoм. Скoрoсть ветра над акватoриями крупных рек и oзёр, а также на вершинах хoлмoв на 2-5 м/с выше, чем в oбычных услoвиях.
Атмoсфернoе давление в разных тoчках местнoсти мoжет значительнo oтличаться oт давления на метеoстанции, в зависимoсти oт услoвий рельефа (при пoдъёме на 10 м давление пoнижается примернo на 1 мм рт.ст.).